GW3210 Weather Reports


Display with metric or nautical units.
time (UTC)temp
F
wind
direction
speed
MPH
gust
MPH
rain 1hr
in
rain 24hr
in
rain mn
in
humidity
%
barometer
mb
20260831103116 54 0.0 0.0 0.00 0.00 0.00 67 1014.6
20260831102136 55 0.0 0.0 0.00 0.00 0.00 66 1014.8
20260831101116 55 0.0 0.0 0.00 0.00 0.00 66 1014.8
20260831100116 55 0.0 1.0 0.00 0.00 0.00 66 1014.9
20260831095116 55 158 1.0 1.0 0.00 0.00 0.00 66 1015.0
20260831094116 55 158 1.0 1.0 0.00 0.00 0.00 66 1015.1
20260831093116 55 0.0 0.0 0.00 0.00 0.00 65 1015.2
20260831092118 55 0.0 0.0 0.00 0.00 0.00 65 1015.3
20260831091116 56 0.0 0.0 0.00 0.00 0.00 65 1015.4
20260831090116 56 158 1.0 1.0 0.00 0.00 0.00 64 1015.3
20260831085136 56 0.0 1.0 0.00 0.00 0.00 64 1015.5
20260831084116 56 158 1.0 1.0 0.00 0.00 0.00 65 1015.6
20260831083116 56 158 1.0 1.0 0.00 0.00 0.00 64 1015.6
20260831082116 56 135 1.0 1.0 0.00 0.00 0.00 64 1015.7
20260831081116 56 135 2.0 3.0 0.00 0.00 0.00 64 1015.9
20260831080136 56 113 2.0 3.0 0.00 0.00 0.00 63 1015.9
20260831075116 57 0.0 0.0 0.00 0.00 0.00 63 1016.0
20260831074116 57 0.0 1.0 0.00 0.00 0.00 62 1016.1
20260831073116 57 0.0 1.0 0.00 0.00 0.00 62 1016.2
20260831072118 58 0.0 0.0 0.00 0.00 0.00 61 1016.3
20260831065116 59 68 1.0 2.0 0.00 0.00 0.00 60 1016.5
20260831064117 59 23 1.0 2.0 0.00 0.00 0.00 60 1016.6
20260831063117 60 23 2.0 3.0 0.00 0.00 0.00 59 1016.6
20260831062117 60 0.0 1.0 0.00 0.00 0.00 59 1016.7
20260831061137 60 293 1.0 2.0 0.00 0.00 0.00 58 1016.9
20260831060137 61 293 1.0 1.0 0.00 0.00 0.00 58 1016.9
20260831055116 61 315 1.0 3.0 0.00 0.00 0.00 57 1017.0
20260831054137 61 293 2.0 3.0 0.00 0.00 0.00 57 1017.1
20260831053117 62 315 3.0 5.0 0.00 0.00 0.00 57 1017.1
20260831052116 62 315 5.0 7.0 0.00 0.00 0.00 57 1017.3
20260831051116 62 315 3.0 5.0 0.00 0.00 0.00 56 1017.3
20260831050117 62 315 4.0 7.0 0.00 0.00 0.00 56 1017.4
20260831045116 62 338 2.0 3.0 0.00 0.00 0.00 55 1017.4
20260831044116 62 315 2.0 3.0 0.00 0.00 0.00 55 1017.5
20260831043136 63 338 3.0 4.0 0.00 0.00 0.00 54 1017.5
20260831042116 63 315 3.0 4.0 0.00 0.00 0.00 53 1017.5
20260831041116 63 315 3.0 4.0 0.00 0.00 0.00 53 1017.5
20260831040116 64 315 2.0 3.0 0.00 0.00 0.00 52 1017.5
20260831035116 64 293 4.0 6.0 0.00 0.00 0.00 51 1017.6
20260831034117 64 315 3.0 4.0 0.00 0.00 0.00 50 1017.5
20260831033137 65 293 2.0 3.0 0.00 0.00 0.00 49 1017.5
20260831032116 65 315 2.0 3.0 0.00 0.00 0.00 48 1017.5
20260831031136 66 315 4.0 6.0 0.00 0.00 0.00 48 1017.6
20260831030136 66 293 4.0 7.0 0.00 0.00 0.00 47 1017.6
20260831025116 67 338 3.0 4.0 0.00 0.00 0.00 46 1017.5
20260831024116 67 338 4.0 8.0 0.00 0.00 0.00 45 1017.7
20260831023116 68 315 5.0 8.0 0.00 0.00 0.00 44 1017.8
20260831022136 68 338 5.0 11.0 0.00 0.00 0.00 43 1017.8
20260831021136 69 0 4.0 6.0 0.00 0.00 0.00 42 1017.9
20260831020116 69 338 5.0 8.0 0.00 0.00 0.00 41 1017.9
20260831014116 71 338 5.0 9.0 0.00 0.00 0.00 38 1018.1
20260831013116 72 293 8.0 11.0 0.00 0.00 0.00 37 1018.2
20260831012116 72 315 7.0 10.0 0.00 0.00 0.00 37 1018.3
20260831011116 73 270 5.0 9.0 0.00 0.00 0.00 36 1018.4
20260831010116 73 0 9.0 13.0 0.00 0.00 0.00 35 1018.5
20260831005116 73 293 6.0 10.0 0.00 0.00 0.00 36 1018.6
20260831004116 74 338 6.0 10.0 0.00 0.00 0.00 35 1018.6
20260831003116 74 315 6.0 12.0 0.00 0.00 0.00 34 1018.8
20260831002115 75 315 6.0 11.0 0.00 0.00 0.00 33 1018.8
20260831001116 75 315 3.0 4.0 0.00 0.00 0.00 33 1019.0
20260831000116 75 270 4.0 8.0 0.00 0.00 0.00 33 1018.9
20260830235116 75 0 5.0 10.0 0.00 0.00 0.00 33 1018.9
20260830234116 75 338 4.0 7.0 0.00 0.00 0.00 32 1019.0
20260830233115 74 293 4.0 6.0 0.00 0.00 0.00 33 1019.2
20260830232116 74 315 10.0 14.0 0.00 0.00 0.00 33 1019.2
20260830231116 74 338 5.0 10.0 0.00 0.00 0.00 32 1019.4
20260830230116 74 338 3.0 4.0 0.00 0.00 0.00 32 1019.5
20260830225116 74 293 7.0 11.0 0.00 0.00 0.00 31 1019.7
20260830224115 74 315 4.0 5.0 0.00 0.00 0.00 34 1019.9
20260830223135 73 315 5.0 8.0 0.00 0.00 0.00 31 1020.2
20260830222115 73 315 3.0 6.0 0.00 0.00 0.00 32 1020.3
20260830221115 73 338 7.0 14.0 0.00 0.00 0.00 34 1020.5
20260830220115 73 0 8.0 11.0 0.00 0.00 0.00 34 1020.7
20260830215116 73 338 3.0 8.0 0.00 0.00 0.00 35 1020.7
20260830214115 72 315 3.0 6.0 0.00 0.00 0.00 35 1020.8
20260830213115 72 315 3.0 5.0 0.00 0.00 0.00 35 1021.0
20260830212116 72 338 3.0 3.0 0.00 0.00 0.00 35 1021.0
20260830211115 72 270 4.0 7.0 0.00 0.00 0.00 34 1021.2
20260830210115 72 293 5.0 8.0 0.00 0.00 0.00 34 1021.2
20260830205116 71 293 5.0 9.0 0.00 0.00 0.00 35 1021.4
20260830204116 71 0 6.0 9.0 0.00 0.00 0.00 35 1021.6
20260830203135 71 45 2.0 4.0 0.00 0.00 0.00 36 1021.7
20260830202115 71 293 4.0 7.0 0.00 0.00 0.00 36 1021.8
20260830201115 70 315 5.0 9.0 0.00 0.00 0.00 37 1022.0
20260830200115 71 293 3.0 6.0 0.00 0.00 0.00 36 1021.9
20260830195135 69 293 4.0 5.0 0.00 0.00 0.00 37 1021.9
20260830194115 69 315 2.0 5.0 0.00 0.00 0.00 38 1022.0
20260830193115 69 270 4.0 7.0 0.00 0.00 0.00 40 1022.0
20260830192115 67 293 4.0 7.0 0.00 0.00 0.00 41 1022.3
20260830191136 67 338 1.0 3.0 0.00 0.00 0.00 43 1022.3
20260830190115 68 315 5.0 10.0 0.00 0.00 0.00 41 1022.4
20260830185137 67 0 1.0 2.0 0.00 0.00 0.00 43 1022.6
20260830184117 67 338 4.0 6.0 0.00 0.00 0.00 46 1022.5
20260830183117 67 293 3.0 4.0 0.00 0.00 0.00 44 1022.5
20260830182117 67 293 4.0 11.0 0.00 0.00 0.00 43 1022.5
20260830181117 66 270 4.0 8.0 0.00 0.00 0.00 48 1022.5
20260830180117 65 293 5.0 8.0 0.00 0.00 0.00 47 1022.4
20260830175117 63 293 3.0 3.0 0.00 0.00 0.00 51 1022.3
20260830174117 63 270 3.0 4.0 0.00 0.00 0.00 51 1022.3
20260830173115 64 23 2.0 4.0 0.00 0.00 0.00 52 1022.3
20260830172117 62 270 1.0 2.0 0.00 0.00 0.00 55 1022.4
20260830171117 62 270 4.0 6.0 0.00 0.00 0.00 57 1022.4
20260830170117 59 0.0 1.0 0.00 0.00 0.00 59 1022.4
20260830165117 58 293 3.0 4.0 0.00 0.00 0.00 60 1022.3
20260830164117 57 293 2.0 3.0 0.00 0.00 0.00 60 1022.2
20260830163117 56 0 1.0 2.0 0.00 0.00 0.00 63 1022.3
20260830162137 56 338 1.0 2.0 0.00 0.00 0.00 64 1022.4
20260830161117 55 0 1.0 2.0 0.00 0.00 0.00 65 1022.5
20260830160117 55 45 1.0 2.0 0.00 0.00 0.00 67 1022.5
20260830155157 54 0.0 1.0 0.00 0.00 0.00 68 1022.5
20260830154137 54 45 1.0 2.0 0.00 0.00 0.00 71 1022.5
20260830153116 53 0.0 1.0 0.00 0.00 0.00 76 1022.6
20260830152157 53 0.0 1.0 0.00 0.00 0.00 77 1022.6
20260830151117 52 0.0 2.0 0.00 0.00 0.00 77 1022.7
20260830150116 52 0.0 0.0 0.00 0.00 0.00 77 1022.7
20260830145137 52 0.0 1.0 0.00 0.00 0.00 78 1022.6
20260830144137 51 315 1.0 1.0 0.00 0.00 0.00 77 1022.7
20260830143117 51 315 1.0 2.0 0.00 0.00 0.00 74 1022.6
20260830142116 51 0.0 0.0 0.00 0.00 0.00 74 1022.6
20260830141137 51 315 1.0 2.0 0.00 0.00 0.00 73 1022.6
20260830140117 51 315 1.0 1.0 0.00 0.00 0.00 73 1022.6
20260830135117 51 0.0 0.0 0.00 0.00 0.00 73 1022.5
20260830134137 51 0.0 0.0 0.00 0.00 0.00 73 1022.5
20260830133137 51 0.0 0.0 0.00 0.00 0.00 72 1022.4
20260830132136 51 0.0 0.0 0.00 0.00 0.00 72 1022.4
20260830131116 51 0.0 0.0 0.00 0.00 0.00 72 1022.3
20260830130116 51 0.0 0.0 0.00 0.01 0.00 72 1022.4
20260830125117 51 0.0 0.0 0.00 0.01 0.00 72 1022.5
20260830124116 51 0.0 1.0 0.00 0.02 0.00 72 1022.4
20260830123118 51 315 1.0 1.0 0.00 0.03 0.00 72 1022.3
20260830122116 51 315 1.0 2.0 0.00 0.04 0.00 71 1022.3
20260830121116 52 315 2.0 2.0 0.00 0.04 0.00 76 1022.4
20260830120116 52 315 1.0 2.0 0.00 0.04 0.00 77 1022.3
20260830115116 52 293 2.0 3.0 0.00 0.04 0.00 77 1022.3
20260830114116 52 0.0 1.0 0.00 0.04 0.00 76 1022.5
20260830113116 52 293 1.0 1.0 0.00 0.04 0.00 73 1022.3
20260830112116 51 293 1.0 1.0 0.00 0.04 0.00 71 1022.2
20260830111116 52 293 1.0 2.0 0.00 0.04 0.00 70 1022.2
20260830110117 52 0.0 1.0 0.00 0.04 0.00 69 1022.3
20260830105116 52 293 1.0 1.0 0.00 0.04 0.00 70 1022.3
20260830104156 52 293 1.0 1.0 0.00 0.04 0.00 70 1022.3